Tracking 35055 objects as of 18-Aug-2026
HD Live streaming from Space Station
objects crossing your sky now

SALYUT 7 DEB


SALYUT 7 DEB is no longer on orbit


NORAD ID: 15303
Int'l Code: 1982-033DS
Launch date: April 19, 1982
Source: Commonwealth of Independent States (former USSR) (CIS)
Launch site: TYURATAM MISSILE AND SPACE COMPLEX (TTMTR)
Decay date: 1984-10-20

Note: This is SATELLITE DEBRIS
Your satellite tracking list
Your tracking list is empty




NASA's NSSDC Master Catalog

Two Line Element Set (TLE):
1 15303U 82033 DS 84294.80332880  .15647813 +55517-4 +19219-2 0  9993
2 15303 051.6234 082.0117 0030000 343.6680 016.2866 16.33739533144783
Source of the keplerian elements: AFSPC